| time (UTC) | temp F | wind direction | speed MPH | gust MPH | rain 1hr in | rain 24hr in | rain mn in | humidity % | barometer mb |
| 20260906061403 | 73 | 71 | 3.0 | 8.0 | 0.00 | 0.00 | 0.00 | 83 | 1012.0 |
| 20260906060350 | 73 | 125 | 3.0 | 6.0 | 0.00 | 0.00 | 0.00 | 84 | 1012.1 |
| 20260906055348 | 74 | 45 | 1.0 | 3.0 | 0.00 | 0.00 | 0.00 | 83 | 1012.2 |
| 20260906054302 | 74 | 180 | 0.0 | 3.0 | 0.00 | 0.00 | 0.00 | 82 | 1012.2 |
| 20260906053250 | 74 | 358 | 2.0 | 4.0 | 0.00 | 0.00 | 0.00 | 81 | 1012.1 |
| 20260906052223 | 74 | 65 | 3.0 | 4.0 | 0.00 | 0.00 | 0.00 | 82 | 1012.0 |
| 20260906051202 | 74 | 35 | 4.0 | 4.0 | 0.00 | 0.00 | 0.00 | 83 | 1011.8 |
| 20260906050208 | 74 | 12 | 2.0 | 3.0 | 0.00 | 0.00 | 0.00 | 83 | 1011.7 |
| 20260906045153 | 75 | 84 | 3.0 | 4.0 | 0.00 | 0.00 | 0.00 | 83 | 1012.0 |
| 20260906044153 | 75 | 76 | 4.0 | 4.0 | 0.00 | 0.00 | 0.00 | 84 | 1011.8 |
| 20260906043132 | 75 | 33 | 2.0 | 4.0 | 0.00 | 0.00 | 0.00 | 84 | 1011.6 |
| 20260906042103 | 75 | 18 | 2.0 | 3.0 | 0.00 | 0.00 | 0.00 | 84 | 1011.3 |
| 20260906041053 | 75 | 1 | 2.0 | 3.0 | 0.00 | 0.00 | 0.00 | 83 | 1011.1 |
| 20260906040033 | 75 | 80 | 1.0 | 3.0 | 0.00 | 0.00 | 0.00 | 84 | 1011.0 |
| 20260906035037 | 75 | 13 | 2.0 | 2.0 | 0.00 | 0.00 | 0.00 | 83 | 1010.8 |
| 20260906034003 | 76 | 25 | 0.0 | 0.0 | 0.00 | 0.00 | 0.00 | 84 | 1010.9 |
| 20260906032950 | 76 | 135 | 0.0 | 2.0 | 0.00 | 0.00 | 0.00 | 82 | 1010.6 |
| 20260906031922 | 76 | 57 | 2.0 | 2.0 | 0.00 | 0.00 | 0.00 | 81 | 1010.8 |
| 20260906030903 | 76 | 15 | 1.0 | 2.0 | 0.00 | 0.00 | 0.00 | 81 | 1010.6 |
| 20260906025853 | 76 | 34 | 0.0 | 2.0 | 0.00 | 0.00 | 0.00 | 81 | 1010.5 |
| 20260906024852 | 76 | 230 | 0.0 | 2.0 | 0.00 | 0.00 | 0.00 | 81 | 1010.6 |
| 20260906023848 | 76 | 29 | 0.0 | 2.0 | 0.00 | 0.00 | 0.00 | 82 | 1010.3 |
| 20260906022823 | 76 | 269 | 0.0 | 1.0 | 0.00 | 0.00 | 0.00 | 82 | 1010.3 |
| 20260906021802 | 76 | 116 | 0.0 | 3.0 | 0.00 | 0.00 | 0.00 | 82 | 1010.4 |
| 20260906020804 | 76 | 7 | 0.0 | 3.0 | 0.00 | 0.00 | 0.00 | 81 | 1010.1 |
| 20260906015732 | 76 | 89 | 0.0 | 4.0 | 0.00 | 0.00 | 0.00 | 81 | 1009.8 |
| 20260906014725 | 76 | 332 | 1.0 | 2.0 | 0.00 | 0.00 | 0.00 | 80 | 1009.7 |
| 20260906013738 | 76 | 25 | 0.0 | 4.0 | 0.00 | 0.00 | 0.00 | 80 | 1009.6 |
| 20260906012702 | 77 | 79 | 0.0 | 5.0 | 0.00 | 0.00 | 0.00 | 80 | 1009.3 |
| 20260906011707 | 77 | 0 | 5.0 | 5.0 | 0.00 | 0.00 | 0.00 | 80 | 1009.5 |
| 20260906010653 | 77 | 86 | 5.0 | 5.0 | 0.00 | 0.00 | 0.00 | 80 | 1009.7 |
| 20260906005632 | 78 | 105 | 1.0 | 5.0 | 0.00 | 0.00 | 0.00 | 79 | 1009.6 |
| 20260906004602 | 78 | 131 | 2.0 | 5.0 | 0.00 | 0.00 | 0.00 | 78 | 1009.4 |
| 20260906003608 | 79 | 56 | 5.0 | 6.0 | 0.00 | 0.00 | 0.00 | 77 | 1009.4 |
| 20260906002523 | 80 | 28 | 2.0 | 5.0 | 0.00 | 0.00 | 0.00 | 77 | 1009.6 |
| 20260906001502 | 80 | 68 | 0.0 | 3.0 | 0.00 | 0.00 | 0.00 | 77 | 1009.5 |
| 20260906000455 | 81 | 332 | 1.0 | 3.0 | 0.00 | 0.00 | 0.00 | 77 | 1009.7 |
| 20260905235449 | 81 | 355 | 3.0 | 3.0 | 0.00 | 0.00 | 0.00 | 76 | 1009.4 |
| 20260905234423 | 82 | 25 | 2.0 | 3.0 | 0.00 | 0.00 | 0.00 | 75 | 1009.1 |
| 20260905233423 | 83 | 317 | 2.0 | 3.0 | 0.00 | 0.00 | 0.00 | 75 | 1008.9 |
| 20260905232413 | 83 | 240 | 0.0 | 8.0 | 0.00 | 0.00 | 0.00 | 75 | 1009.0 |
| 20260905231403 | 84 | 1 | 2.0 | 6.0 | 0.00 | 0.00 | 0.00 | 75 | 1008.9 |
| 20260905230353 | 84 | 27 | 3.0 | 3.0 | 0.00 | 0.00 | 0.00 | 75 | 1009.0 |
| 20260905225407 | 85 | 17 | 1.0 | 3.0 | 0.00 | 0.00 | 0.00 | 74 | 1009.0 |
| 20260905224332 | 85 | 24 | 2.0 | 4.0 | 0.00 | 0.00 | 0.00 | 73 | 1008.9 |
| 20260905223323 | 86 | 21 | 2.0 | 7.0 | 0.00 | 0.00 | 0.00 | 72 | 1008.8 |
| 20260905222306 | 86 | 211 | 0.0 | 3.0 | 0.00 | 0.00 | 0.00 | 72 | 1008.5 |
| 20260905221253 | 86 | 41 | 2.0 | 5.0 | 0.00 | 0.00 | 0.00 | 72 | 1008.4 |
| 20260905220238 | 86 | 26 | 4.0 | 9.0 | 0.00 | 0.00 | 0.00 | 71 | 1008.6 |
| 20260905215218 | 87 | 348 | 6.0 | 7.0 | 0.00 | 0.00 | 0.00 | 71 | 1008.3 |
| 20260905214202 | 88 | 311 | 1.0 | 7.0 | 0.00 | 0.00 | 0.00 | 68 | 1008.3 |
| 20260905213153 | 88 | 343 | 1.0 | 4.0 | 0.00 | 0.00 | 0.00 | 71 | 1008.2 |
| 20260905212133 | 89 | 56 | 3.0 | 5.0 | 0.00 | 0.00 | 0.00 | 69 | 1008.2 |
| 20260905211102 | 88 | 35 | 2.0 | 3.0 | 0.00 | 0.00 | 0.00 | 71 | 1008.0 |
| 20260905210052 | 90 | 296 | 1.0 | 5.0 | 0.00 | 0.00 | 0.00 | 68 | 1008.2 |
| 20260905205022 | 90 | 26 | 6.0 | 7.0 | 0.00 | 0.00 | 0.00 | 67 | 1008.0 |
| 20260905204003 | 91 | 27 | 5.0 | 5.0 | 0.00 | 0.00 | 0.00 | 65 | 1007.9 |
| 20260905202948 | 91 | 254 | 1.0 | 6.0 | 0.00 | 0.00 | 0.00 | 65 | 1008.1 |
| 20260905201919 | 0 | 0 | 0.0 | 0.0 | 0.00 | 0.00 | 0.00 | 100 | |
| 20260905200916 | 90 | 65 | 2.0 | 4.0 | 0.00 | 0.00 | 0.00 | 63 | 1008.2 |
| 20260905195856 | 91 | 62 | 1.0 | 2.0 | 0.00 | 0.00 | 0.00 | 65 | 1008.2 |
| 20260905194846 | 91 | 341 | 0.0 | 3.0 | 0.00 | 0.00 | 0.00 | 64 | 1008.3 |
| 20260905193846 | 91 | 142 | 0.0 | 4.0 | 0.00 | 0.00 | 0.00 | 64 | 1008.3 |
| 20260905192816 | 91 | 338 | 2.0 | 2.0 | 0.00 | 0.00 | 0.00 | 64 | 1008.1 |
| 20260905191756 | 91 | 39 | 1.0 | 5.0 | 0.00 | 0.00 | 0.00 | 65 | 1008.5 |
| 20260905190746 | 89 | 299 | 1.0 | 3.0 | 0.00 | 0.00 | 0.00 | 68 | 1008.6 |
| 20260905185716 | 91 | 10 | 3.0 | 4.0 | 0.00 | 0.00 | 0.00 | 64 | 1008.5 |
| 20260905184656 | 91 | 8 | 2.0 | 4.0 | 0.00 | 0.00 | 0.00 | 63 | 1008.5 |
| 20260905183646 | 91 | 329 | 3.0 | 4.0 | 0.00 | 0.00 | 0.00 | 64 | 1008.4 |
| 20260905182646 | 91 | 28 | 5.0 | 5.0 | 0.00 | 0.00 | 0.00 | 63 | 1008.7 |
| 20260905181626 | 91 | 65 | 2.0 | 2.0 | 0.00 | 0.00 | 0.00 | 65 | 1008.7 |
| 20260905180617 | 90 | 128 | 2.0 | 3.0 | 0.00 | 0.00 | 0.00 | 66 | 1008.8 |
| 20260905175616 | 91 | 107 | 1.0 | 3.0 | 0.00 | 0.00 | 0.00 | 63 | 1008.7 |
| 20260905174556 | 90 | 211 | 1.0 | 4.0 | 0.00 | 0.00 | 0.00 | 65 | 1008.8 |
| 20260905173526 | 91 | 48 | 3.0 | 4.0 | 0.00 | 0.00 | 0.00 | 63 | 1008.8 |
| 20260905172530 | 91 | 234 | 2.0 | 4.0 | 0.00 | 0.00 | 0.00 | 64 | 1008.7 |
| 20260905171506 | 91 | 75 | 1.0 | 3.0 | 0.00 | 0.00 | 0.00 | 65 | 1008.9 |
| 20260905170456 | 90 | 245 | 0.0 | 3.0 | 0.00 | 0.00 | 0.00 | 65 | 1009.1 |
| 20260905165446 | 91 | 209 | 0.0 | 3.0 | 0.00 | 0.00 | 0.00 | 62 | 1009.2 |
| 20260905164437 | 89 | 210 | 1.0 | 3.0 | 0.00 | 0.00 | 0.00 | 66 | 1009.1 |
| 20260905163416 | 90 | 235 | 0.0 | 2.0 | 0.00 | 0.00 | 0.00 | 67 | 1009.3 |
| 20260905162431 | 90 | 70 | 1.0 | 3.0 | 0.00 | 0.00 | 0.00 | 67 | 1009.3 |
| 20260905161416 | 88 | 9 | 2.0 | 3.0 | 0.00 | 0.00 | 0.00 | 70 | 1009.3 |
| 20260905160356 | 88 | 35 | 2.0 | 5.0 | 0.00 | 0.00 | 0.00 | 69 | 1009.3 |
| 20260905155346 | 87 | 17 | 4.0 | 4.0 | 0.00 | 0.00 | 0.00 | 71 | 1009.2 |
| 20260905154352 | 87 | 228 | 2.0 | 6.0 | 0.00 | 0.00 | 0.00 | 70 | 1009.4 |
| 20260905153326 | 87 | 346 | 3.0 | 3.0 | 0.00 | 0.00 | 0.00 | 71 | 1009.4 |
| 20260905152316 | 86 | 346 | 2.0 | 5.0 | 0.00 | 0.00 | 0.00 | 71 | 1009.2 |
| 20260905151312 | 86 | 0 | 1.0 | 5.0 | 0.00 | 0.00 | 0.00 | 70 | 1008.9 |
| 20260905150312 | 86 | 10 | 2.0 | 3.0 | 0.00 | 0.00 | 0.00 | 72 | 1008.8 |
| 20260905145256 | 85 | 71 | 1.0 | 2.0 | 0.00 | 0.00 | 0.00 | 72 | 1009.2 |
| 20260905144246 | 85 | 359 | 1.0 | 3.0 | 0.00 | 0.00 | 0.00 | 73 | 1008.9 |
| 20260905143246 | 84 | 156 | 0.0 | 2.0 | 0.00 | 0.00 | 0.00 | 78 | 1008.6 |
| 20260905142226 | 84 | 253 | 0.0 | 2.0 | 0.00 | 0.00 | 0.00 | 78 | 1008.8 |
| 20260905141216 | 83 | 2 | 1.0 | 4.0 | 0.00 | 0.00 | 0.00 | 80 | 1008.6 |
| 20260905140156 | 82 | 338 | 4.0 | 5.0 | 0.00 | 0.00 | 0.00 | 82 | 1008.7 |
| 20260905135146 | 81 | 336 | 3.0 | 4.0 | 0.00 | 0.00 | 0.00 | 84 | 1008.8 |
| 20260905134201 | 80 | 13 | 1.0 | 4.0 | 0.00 | 0.00 | 0.00 | 86 | 1008.7 |
| 20260905133126 | 80 | 18 | 3.0 | 3.0 | 0.00 | 0.00 | 0.00 | 86 | 1008.6 |
| 20260905132116 | 80 | 3 | 3.0 | 4.0 | 0.00 | 0.00 | 0.00 | 86 | 1008.6 |
| 20260905131116 | 79 | 68 | 2.0 | 3.0 | 0.00 | 0.00 | 0.00 | 87 | 1008.5 |
| 20260905130056 | 78 | 55 | 1.0 | 2.0 | 0.00 | 0.00 | 0.00 | 88 | 1008.6 |
| 20260905125101 | 78 | 104 | 1.0 | 2.0 | 0.00 | 0.00 | 0.00 | 90 | 1008.8 |
| 20260905124016 | 77 | 325 | 2.0 | 3.0 | 0.00 | 0.00 | 0.00 | 90 | 1008.6 |
| 20260905122956 | 76 | 59 | 3.0 | 3.0 | 0.00 | 0.00 | 0.00 | 93 | 1008.4 |
| 20260905121926 | 75 | 27 | 0.0 | 3.0 | 0.00 | 0.00 | 0.00 | 95 | 1008.3 |
| 20260905120916 | 75 | 183 | 0.0 | 2.0 | 0.00 | 0.00 | 0.00 | 94 | 1008.6 |
| 20260905115931 | 75 | 224 | 1.0 | 2.0 | 0.00 | 0.00 | 0.00 | 94 | 1007.8 |
| 20260905114856 | 75 | 93 | 1.0 | 2.0 | 0.00 | 0.00 | 0.00 | 94 | 1007.8 |
| 20260905113846 | 75 | 261 | 2.0 | 2.0 | 0.00 | 0.00 | 0.00 | 93 | 1007.6 |
| 20260905112826 | 76 | 180 | 1.0 | 1.0 | 0.00 | 0.00 | 0.00 | 93 | 1007.5 |
| 20260905111806 | 76 | 156 | 1.0 | 2.0 | 0.00 | 0.00 | 0.00 | 93 | 1007.4 |
| 20260905110756 | 76 | 220 | 1.0 | 2.0 | 0.00 | 0.00 | 0.00 | 92 | 1007.3 |
| 20260905105746 | 76 | 340 | 0.0 | 2.0 | 0.00 | 0.00 | 0.00 | 92 | 1007.5 |
| 20260905104746 | 76 | 189 | 2.0 | 2.0 | 0.00 | 0.00 | 0.00 | 92 | 1007.5 |
| 20260905103726 | 76 | 183 | 2.0 | 2.0 | 0.00 | 0.00 | 0.00 | 91 | 1007.5 |
| 20260905102716 | 77 | 66 | 1.0 | 1.0 | 0.00 | 0.00 | 0.00 | 91 | 1007.6 |
| 20260905101656 | 77 | 306 | 0.0 | 2.0 | 0.00 | 0.00 | 0.00 | 90 | 1007.5 |
| 20260905100646 | 77 | 156 | 1.0 | 2.0 | 0.00 | 0.00 | 0.00 | 90 | 1007.6 |
| 20260905095651 | 77 | 204 | 1.0 | 3.0 | 0.00 | 0.00 | 0.00 | 90 | 1007.5 |
| 20260905094641 | 78 | 103 | 1.0 | 2.0 | 0.00 | 0.00 | 0.00 | 89 | 1007.4 |
| 20260905093616 | 78 | 40 | 1.0 | 2.0 | 0.00 | 0.00 | 0.00 | 89 | 1007.4 |
| 20260905092556 | 78 | 75 | 1.0 | 2.0 | 0.00 | 0.00 | 0.00 | 89 | 1007.3 |
| 20260905091546 | 78 | 294 | 1.0 | 2.0 | 0.00 | 0.00 | 0.00 | 89 | 1007.5 |
| 20260905090546 | 78 | 190 | 2.0 | 3.0 | 0.00 | 0.00 | 0.00 | 90 | 1007.4 |
| 20260905085516 | 78 | 183 | 1.0 | 2.0 | 0.00 | 0.00 | 0.00 | 90 | 1007.5 |
| 20260905084456 | 78 | 262 | 1.0 | 3.0 | 0.00 | 0.00 | 0.00 | 90 | 1007.7 |
| 20260905083446 | 78 | 276 | 0.0 | 3.0 | 0.00 | 0.00 | 0.00 | 89 | 1007.6 |
| 20260905082426 | 78 | 134 | 1.0 | 2.0 | 0.00 | 0.00 | 0.00 | 89 | 1007.6 |
| 20260905081416 | 78 | 211 | 2.0 | 2.0 | 0.00 | 0.00 | 0.00 | 90 | 1007.7 |
| 20260905080356 | 78 | 193 | 1.0 | 3.0 | 0.00 | 0.00 | 0.00 | 89 | 1007.9 |
| 20260905075346 | 79 | 142 | 0.0 | 3.0 | 0.00 | 0.00 | 0.00 | 89 | 1007.7 |
| 20260905074337 | 79 | 320 | 1.0 | 3.0 | 0.00 | 0.00 | 0.00 | 88 | 1007.7 |
| 20260905073326 | 79 | 106 | 0.0 | 3.0 | 0.00 | 0.00 | 0.00 | 88 | 1007.7 |
| 20260905072316 | 79 | 242 | 2.0 | 4.0 | 0.00 | 0.00 | 0.00 | 89 | 1007.9 |
| 20260905071256 | 78 | 259 | 0.0 | 4.0 | 0.00 | 0.00 | 0.00 | 89 | 1007.9 |
| 20260905070246 | 79 | 1 | 2.0 | 4.0 | 0.00 | 0.00 | 0.00 | 89 | 1007.8 |
| 20260905065216 | 79 | 255 | 0.0 | 0.0 | 0.00 | 0.00 | 0.00 | 89 | 1007.7 |
| 20260905064216 | 79 | 140 | 2.0 | 3.0 | 0.00 | 0.00 | 0.00 | 89 | 1007.8 |
| 20260905063156 | 79 | 224 | 0.0 | 0.0 | 0.00 | 0.00 | 0.00 | 87 | 1007.7 |
| 20260905062146 | 79 | 209 | 0.0 | 1.0 | 0.00 | 0.00 | 0.00 | 87 | 1008.0 |